When you browse on this site, cookies collect data to enhance your experience and personalize the content and advertising you see.
Visit our Privacy Policy to learn more. By continuing to use the site, you agree to this use of cookies and data.
  • In United Kingdom
  • List of Countries
  • For 7 days
  • Water Temperature
  • Satellite Maps
  • Weather Map
  • Weather Widgets
  • user-avatar
    Login

    Hourly Weather Dundee

    Today, 27 June, Thursday

    Time Temperature Precipitation Wind Pressure Humidity
    00:00 +10°C° 0 mm 0 mps 763 mmHg 87%
    01:00 +10°C° 0 mm 0 mps 764 mmHg 88%
    02:00 +11°C° 0 mm 1 mps 764 mmHg 88%
    03:00 +11°C° 0 mm 1 mps 764 mmHg 89%
    04:00 +12°C° 0 mm 1 mps 764 mmHg 88%
    05:00 +12°C° 0 mm 0 mps 763 mmHg 88%
    06:00 +13°C° 0 mm 0 mps 763 mmHg 87%
    07:00 +15°C° 0 mm 1 mps 764 mmHg 84%
    08:00 +16°C° 0 mm 2 mps 764 mmHg 82%
    09:00 +17°C° 0 mm 2 mps 764 mmHg 79%
    10:00 +18°C° 0 mm 2 mps 764 mmHg 79%
    11:00 +18°C° 0 mm 3 mps 764 mmHg 79%
    12:00 +18°C° 0 mm 3 mps 764 mmHg 79%
    13:00 +18°C° 0 mm 3 mps 764 mmHg 79%
    14:00 +18°C° 0 mm 3 mps 763 mmHg 79%
    15:00 +18°C° 0 mm 3 mps 763 mmHg 79%
    16:00 +17°C° 0 mm 3 mps 763 mmHg 82%
    17:00 +17°C° 0 mm 3 mps 763 mmHg 84%
    18:00 +16°C° 0 mm 3 mps 762 mmHg 86%
    19:00 +13°C° 0 mm 3 mps 763 mmHg 89%
    20:00 +13°C° 0 mm 2 mps 763 mmHg 93%
    21:00 +12°C° 0 mm 2 mps 763 mmHg 96%
    22:00 +11°C° 0 mm 1 mps 763 mmHg 96%
    23:00 +11°C° 0 mm 1 mps 762 mmHg 97%

    Tomorrow, 28 June, Friday

    Time Temperature Precipitation Wind Pressure Humidity
    00:00 +9°C° 0 mm 0 mps 762 mmHg 97%
    01:00 +9°C° 0 mm 0 mps 762 mmHg 97%
    02:00 +9°C° 0 mm 0 mps 762 mmHg 97%
    03:00 +9°C° 0 mm 0 mps 762 mmHg 96%
    04:00 +11°C° 0 mm 1 mps 761 mmHg 95%
    05:00 +12°C° 0 mm 1 mps 761 mmHg 93%
    06:00 +13°C° 0 mm 1 mps 760 mmHg 91%
    07:00 +14°C° 0 mm 1 mps 760 mmHg 88%
    08:00 +16°C° 0 mm 2 mps 760 mmHg 84%
    09:00 +17°C° 0 mm 2 mps 760 mmHg 81%
    10:00 +17°C° 0 mm 3 mps 760 mmHg 79%
    11:00 +18°C° 0 mm 3 mps 759 mmHg 78%
    12:00 +18°C° 0 mm 4 mps 759 mmHg 76%
    13:00 +18°C° 0 mm 4 mps 758 mmHg 77%
    14:00 +18°C° 0 mm 4 mps 758 mmHg 77%
    15:00 +18°C° 0 mm 4 mps 758 mmHg 78%
    16:00 +17°C° 0 mm 4 mps 757 mmHg 80%
    17:00 +17°C° 0 mm 4 mps 757 mmHg 82%
    18:00 +16°C° 0 mm 3 mps 756 mmHg 83%
    19:00 +14°C° 0 mm 3 mps 756 mmHg 87%
    20:00 +12°C° 0 mm 3 mps 756 mmHg 90%
    21:00 +11°C° 0 mm 3 mps 755 mmHg 94%
    22:00 +10°C° 0 mm 2 mps 755 mmHg 94%
    23:00 +10°C° 0 mm 2 mps 755 mmHg 94%

    Day after tomorrow, 29 June, Saturday

    Time Temperature Precipitation Wind Pressure Humidity
    00:00 +9°C° 0 mm 2 mps 754 mmHg 95%
    01:00 +9°C° 0 mm 2 mps 754 mmHg 95%
    02:00 +10°C° 0 mm 1 mps 753 mmHg 95%
    03:00 +10°C° 0 mm 1 mps 753 mmHg 95%
    04:00 +11°C° 0 mm 1 mps 752 mmHg 93%
    05:00 +11°C° 0 mm 0 mps 751 mmHg 91%
    06:00 +12°C° 0 mm 0 mps 751 mmHg 90%
    07:00 +15°C° 0 mm 1 mps 751 mmHg 85%
    08:00 +16°C° 0 mm 1 mps 750 mmHg 81%
    09:00 +19°C° 0 mm 1 mps 750 mmHg 76%
    10:00 +19°C° 0 mm 2 mps 750 mmHg 77%
    11:00 +20°C° 0 mm 3 mps 749 mmHg 77%
    12:00 +21°C° 0 mm 3 mps 749 mmHg 77%
    13:00 +21°C° 0.1 mm 3 mps 748 mmHg 78%
    14:00 +21°C° 0.1 mm 3 mps 748 mmHg 79%
    15:00 +21°C° 0.1 mm 3 mps 748 mmHg 80%
    16:00 +20°C° 0.4 mm 3 mps 747 mmHg 84%
    17:00 +19°C° 0.4 mm 3 mps 747 mmHg 88%
    18:00 +17°C° 0.4 mm 4 mps 746 mmHg 92%
    19:00 +15°C° 0.1 mm 4 mps 746 mmHg 93%
    20:00 +16°C° 0.1 mm 3 mps 746 mmHg 93%
    21:00 +14°C° 0.1 mm 3 mps 746 mmHg 93%
    22:00 +13°C° 0 mm 3 mps 745 mmHg 94%
    23:00 +13°C° 0 mm 4 mps 745 mmHg 94%

    30 June, Sunday

    Time Temperature Precipitation Wind Pressure Humidity
    00:00 +12°C° 0 mm 4 mps 745 mmHg 95%
    01:00 +12°C° 0 mm 4 mps 745 mmHg 95%
    02:00 +12°C° 0 mm 4 mps 745 mmHg 95%
    03:00 +12°C° 0 mm 4 mps 745 mmHg 96%
    04:00 +12°C° 0 mm 4 mps 745 mmHg 94%
    05:00 +13°C° 0 mm 4 mps 745 mmHg 93%
    06:00 +14°C° 0 mm 5 mps 745 mmHg 92%
    07:00 +14°C° 0 mm 5 mps 745 mmHg 90%
    08:00 +14°C° 0 mm 5 mps 746 mmHg 89%
    09:00 +14°C° 0 mm 5 mps 746 mmHg 87%
    10:00 +14°C° 0.1 mm 6 mps 746 mmHg 87%
    11:00 +14°C° 0.1 mm 6 mps 746 mmHg 87%
    12:00 +14°C° 0.1 mm 6 mps 746 mmHg 86%
    13:00 +15°C° 0.1 mm 7 mps 746 mmHg 81%
    14:00 +16°C° 0.1 mm 7 mps 746 mmHg 77%
    15:00 +17°C° 0.1 mm 8 mps 746 mmHg 72%
    16:00 +16°C° 0 mm 7 mps 746 mmHg 73%
    17:00 +15°C° 0 mm 7 mps 746 mmHg 75%
    18:00 +15°C° 0 mm 7 mps 746 mmHg 76%
    19:00 +14°C° 0 mm 6 mps 746 mmHg 78%
    20:00 +13°C° 0 mm 6 mps 746 mmHg 81%
    21:00 +10°C° 0 mm 5 mps 746 mmHg 83%
    22:00 +10°C° 0 mm 6 mps 746 mmHg 84%
    23:00 +10°C° 0 mm 6 mps 746 mmHg 84%

    1 July, Monday

    Time Temperature Precipitation Wind Pressure Humidity
    00:00 +10°C° 0 mm 7 mps 746 mmHg 85%
    01:00 +10°C° 0 mm 7 mps 746 mmHg 86%
    02:00 +10°C° 0 mm 7 mps 746 mmHg 87%
    03:00 +10°C° 0 mm 6 mps 746 mmHg 89%
    04:00 +11°C° 0 mm 6 mps 746 mmHg 88%
    05:00 +11°C° 0 mm 6 mps 746 mmHg 88%
    06:00 +11°C° 0 mm 6 mps 746 mmHg 88%
    07:00 +13°C° 0 mm 6 mps 747 mmHg 86%
    08:00 +14°C° 0 mm 6 mps 747 mmHg 84%
    09:00 +15°C° 0 mm 6 mps 748 mmHg 82%
    10:00 +15°C° 0.3 mm 6 mps 748 mmHg 81%
    11:00 +15°C° 0.3 mm 6 mps 749 mmHg 81%
    12:00 +16°C° 0.3 mm 5 mps 749 mmHg 81%
    13:00 +15°C° 0.7 mm 5 mps 750 mmHg 83%
    14:00 +15°C° 0.7 mm 4 mps 751 mmHg 85%
    15:00 +14°C° 0.7 mm 3 mps 751 mmHg 87%
    16:00 +14°C° 0.4 mm 3 mps 752 mmHg 86%
    17:00 +14°C° 0.4 mm 2 mps 753 mmHg 85%
    18:00 +14°C° 0.4 mm 2 mps 753 mmHg 83%
    19:00 +13°C° 0.1 mm 2 mps 754 mmHg 84%
    20:00 +10°C° 0.1 mm 2 mps 755 mmHg 85%
    21:00 +9°C° 0.1 mm 2 mps 755 mmHg 85%
    22:00 +8°C° 0 mm 2 mps 756 mmHg 85%
    23:00 +8°C° 0 mm 1 mps 756 mmHg 85%

    2 July, Tuesday

    Time Temperature Precipitation Wind Pressure Humidity
    00:00 +7°C° 0 mm 1 mps 756 mmHg 85%
    01:00 +7°C° 0 mm 1 mps 757 mmHg 86%
    02:00 +6°C° 0 mm 1 mps 757 mmHg 88%
    03:00 +6°C° 0 mm 1 mps 757 mmHg 89%
    04:00 +6°C° 0 mm 2 mps 757 mmHg 89%
    05:00 +7°C° 0 mm 2 mps 757 mmHg 88%
    06:00 +8°C° 0 mm 2 mps 758 mmHg 87%
    07:00 +10°C° 0 mm 3 mps 758 mmHg 81%
    08:00 +11°C° 0 mm 3 mps 758 mmHg 74%
    09:00 +13°C° 0 mm 3 mps 758 mmHg 68%
    10:00 +14°C° 0 mm 4 mps 758 mmHg 66%
    11:00 +14°C° 0 mm 4 mps 758 mmHg 65%
    12:00 +15°C° 0 mm 4 mps 758 mmHg 64%
    13:00 +15°C° 0 mm 4 mps 758 mmHg 65%
    14:00 +16°C° 0 mm 3 mps 758 mmHg 65%
    15:00 +16°C° 0 mm 3 mps 758 mmHg 65%
    16:00 +16°C° 0 mm 3 mps 758 mmHg 68%
    17:00 +16°C° 0 mm 3 mps 758 mmHg 70%
    18:00 +16°C° 0 mm 3 mps 758 mmHg 72%
    19:00 +13°C° 0 mm 3 mps 758 mmHg 73%
    20:00 +12°C° 0 mm 3 mps 758 mmHg 73%
    21:00 +11°C° 0 mm 3 mps 759 mmHg 74%
    22:00 +10°C° 0 mm 3 mps 759 mmHg 77%
    23:00 +9°C° 0 mm 3 mps 759 mmHg 79%
    Show more